Weather in Buguma

Nigeria     4°48′48″N   7°02′38″E
temp.,
°C
wind,
m/s
gust,
m/s
humid.,
%
clouds,
%
prec.,
mm/h
press.,
hPa
HPBL,
m
18 april, sun
sun1801:00+26w2381100 1.1 101099
04:00+26nnw1284100 0.0 1009100
07:00+25ene5988100 3.1 1012419
10:00+26nw3679100 0.4 1011186
13:00+29e2259100 0.5 1010426
16:00+30se335586 0.0 10081090
19:00+27ssw3571100 0.0 1008239
22:00+26ssw2383100 0.0 1011113
19 april, mon
mon1901:00+25wsw2286100 0.0 101081
04:00+25ssw118796 0.0 100922
07:00+25se2485100 0.0 1011174
10:00+31s3459100 0.0 10121156
13:00+34ssw3344100 0.0 10091408
16:00+31s655984 0.0 1007870
19:00+28s5774100 0.0 1009527
22:00+27ssw3780100 0.0 1010411
20 april, tue
tue2001:00+26sw278445 0.0 1009325
04:00+26sw2787100 0.1 1009304
07:00+27sw158563 0.1 1010239
10:00+32s445874 0.0 10111344
13:00+33sse545299 0.1 10091533
16:00+32sse6656100 0.1 10071310
19:00+28s4673100 0.1 1009501
22:00+27ssw238199 0.0 1010127
21 april, wed
wed2101:00+27w1184100 0.0 100940
04:00+26wsw238591 0.0 1008123
07:00+27nw2285100 0.0 1009123
10:00+30w226632 0.0 1011782
13:00+35sw224624 0.0 10081878
16:00+32s565985 0.4 1006700
19:00+29ssw58725 1.3 1007516
22:00+28ssw4881100 0.0 1009505
22 april, thu
thu2201:00+27wsw248499 0.0 1009142
04:00+26ssw1187100 0.0 100931
07:00+27ssw1285100 0.1 1011105
10:00+30sse1265100 2.4 1012720
13:00+32s4455100 2.5 10101179
16:00+33s3350100 0.0 10071261
19:00+28s466911 0.0 1008295
22:00+27ssw26790 0.0 1010243